Location: Krakow
(50.0830°N, 19.9170°E)
Time: 16:55:04
(UTC+02:00)

Vanguard 2 - All Passes

Search period start: 20 July 2024 00:00
Search period end: 30 July 2024 00:00
Orbit: 552 x 2913 km, 32.9° (Epoch: 20 July)

Date Brightness Start Highest point End Pass type
(mag) Time Alt. Az. Time Alt. Az. Time Alt. Az.
20 Jul - 01:45:53 10° SSW 01:48:19 13° S 01:51:10 10° SSE visible
20 Jul - 23:54:17 10° S 23:55:06 10° S 23:55:57 10° SSE night (unlit)
21 Jul - 02:01:10 10° SSW 02:02:12 10° S 02:03:19 10° S visible
